| time (UTC) | temp F | wind direction | speed MPH | gust MPH | rain 1hr in | rain 24hr in | rain mn in | humidity % | barometer mb |
| 20260509223008 | 57 | 127 | 0.0 | 2.0 | 0.00 | 0.00 | 0.00 | 81 | 1028.6 |
| 20260509221600 | 55 | 142 | 0.0 | 3.0 | 0.00 | 0.00 | 0.00 | 84 | 1028.6 |
| 20260509220101 | 54 | 132 | 0.0 | 3.0 | 0.00 | 0.00 | 0.00 | 87 | 1028.5 |
| 20260509214610 | 52 | 133 | 0.0 | 3.0 | 0.00 | 0.00 | 0.00 | 88 | 1028.3 |
| 20260509213048 | 51 | 82 | 0.0 | 3.0 | 0.00 | 0.00 | 0.00 | 89 | 1028.0 |
| 20260509211543 | 51 | 108 | 0.0 | 3.0 | 0.00 | 0.00 | 0.00 | 90 | 1027.8 |
| 20260509210044 | 50 | 132 | 0.0 | 2.0 | 0.00 | 0.00 | 0.00 | 89 | 1027.8 |
| 20260509204542 | 50 | 138 | 0.0 | 2.0 | 0.00 | 0.00 | 0.00 | 89 | 1027.5 |
| 20260509203039 | 50 | 219 | 0.0 | 3.0 | 0.00 | 0.00 | 0.00 | 89 | 1027.3 |
| 20260509201535 | 50 | 153 | 0.0 | 2.0 | 0.00 | 0.00 | 0.00 | 89 | 1027.1 |
| 20260509200037 | 50 | 143 | 0.0 | 2.0 | 0.00 | 0.00 | 0.00 | 89 | 1027.1 |
| 20260509194534 | 50 | 128 | 0.0 | 2.0 | 0.00 | 0.00 | 0.00 | 88 | 1027.0 |
| 20260509193032 | 51 | 163 | 0.0 | 0.0 | 0.00 | 0.00 | 0.00 | 88 | 1026.8 |
| 20260509191539 | 51 | 146 | 0.0 | 1.0 | 0.00 | 0.00 | 0.00 | 88 | 1026.7 |
| 20260509190030 | 51 | 130 | 0.0 | 3.0 | 0.00 | 0.00 | 0.00 | 88 | 1026.3 |
| 20260509184534 | 52 | 138 | 0.0 | 2.0 | 0.00 | 0.00 | 0.00 | 88 | 1026.0 |
| 20260509183030 | 52 | 167 | 0.0 | 2.0 | 0.00 | 0.00 | 0.00 | 88 | 1025.9 |
| 20260509181522 | 52 | 177 | 0.0 | 2.0 | 0.00 | 0.00 | 0.00 | 88 | 1025.7 |
| 20260509180020 | 52 | 162 | 0.0 | 2.0 | 0.00 | 0.00 | 0.00 | 88 | 1025.8 |
| 20260509174523 | 52 | 140 | 0.0 | 2.0 | 0.00 | 0.00 | 0.00 | 88 | 1025.8 |
| 20260509173018 | 52 | 165 | 0.0 | 2.0 | 0.00 | 0.00 | 0.00 | 88 | 1025.9 |
| 20260509171516 | 52 | 134 | 0.0 | 0.0 | 0.00 | 0.00 | 0.00 | 87 | 1026.0 |
| 20260509170019 | 53 | 120 | 0.0 | 1.0 | 0.00 | 0.00 | 0.00 | 87 | 1026.0 |
| 20260509164514 | 53 | 163 | 0.0 | 1.0 | 0.00 | 0.00 | 0.00 | 87 | 1026.0 |
| 20260509163015 | 53 | 166 | 0.0 | 1.0 | 0.00 | 0.00 | 0.00 | 87 | 1025.9 |
| 20260509161511 | 53 | 169 | 0.0 | 1.0 | 0.00 | 0.00 | 0.00 | 87 | 1026.0 |
| 20260509160009 | 54 | 150 | 0.0 | 2.0 | 0.00 | 0.00 | 0.00 | 86 | 1026.0 |
| 20260509154507 | 54 | 152 | 0.0 | 2.0 | 0.00 | 0.00 | 0.00 | 86 | 1026.0 |
| 20260509153008 | 54 | 161 | 0.0 | 2.0 | 0.00 | 0.00 | 0.00 | 86 | 1025.9 |
| 20260509151505 | 54 | 173 | 0.0 | 1.0 | 0.00 | 0.00 | 0.00 | 86 | 1026.0 |
| 20260509150004 | 54 | 169 | 0.0 | 1.0 | 0.00 | 0.00 | 0.00 | 86 | 1026.1 |
| 20260509144503 | 54 | 148 | 0.0 | 1.0 | 0.00 | 0.00 | 0.00 | 86 | 1026.1 |
| 20260509143004 | 55 | 126 | 0.0 | 1.0 | 0.00 | 0.00 | 0.00 | 86 | 1026.0 |
| 20260509141600 | 55 | 136 | 0.0 | 1.0 | 0.00 | 0.00 | 0.00 | 86 | 1026.1 |
| 20260509134557 | 55 | 135 | 0.0 | 1.0 | 0.00 | 0.00 | 0.00 | 86 | 1026.0 |
| 20260509133056 | 55 | 132 | 0.0 | 2.0 | 0.00 | 0.00 | 0.00 | 86 | 1026.0 |
| 20260509131557 | 55 | 148 | 0.0 | 0.0 | 0.00 | 0.00 | 0.00 | 85 | 1026.0 |
| 20260509130106 | 55 | 148 | 0.0 | 0.0 | 0.00 | 0.00 | 0.00 | 85 | 1026.0 |
| 20260509124556 | 56 | 157 | 0.0 | 1.0 | 0.00 | 0.00 | 0.00 | 85 | 1026.1 |
| 20260509123053 | 56 | 154 | 0.0 | 1.0 | 0.00 | 0.00 | 0.00 | 84 | 1026.1 |
| 20260509121606 | 56 | 134 | 0.0 | 1.0 | 0.00 | 0.00 | 0.00 | 84 | 1026.2 |
| 20260509120051 | 56 | 154 | 0.0 | 1.0 | 0.00 | 0.00 | 0.00 | 84 | 1026.3 |
| 20260509114558 | 56 | 162 | 0.0 | 2.0 | 0.00 | 0.00 | 0.00 | 84 | 1026.1 |
| 20260509113055 | 57 | 140 | 0.0 | 1.0 | 0.00 | 0.00 | 0.00 | 84 | 1026.0 |
| 20260509111546 | 56 | 144 | 0.0 | 1.0 | 0.00 | 0.00 | 0.00 | 84 | 1026.0 |
| 20260509110048 | 56 | 133 | 0.0 | 1.0 | 0.00 | 0.00 | 0.00 | 84 | 1026.0 |
| 20260509104545 | 56 | 118 | 0.0 | 1.0 | 0.00 | 0.00 | 0.00 | 85 | 1026.0 |
| 20260509103052 | 56 | 350 | 0.0 | 0.0 | 0.00 | 0.00 | 0.00 | 85 | 1025.9 |
| 20260509101557 | 56 | 348 | 0.0 | 0.0 | 0.00 | 0.00 | 0.00 | 85 | 1025.8 |
| 20260509100040 | 56 | 348 | 0.0 | 0.0 | 0.00 | 0.00 | 0.00 | 82 | 1025.8 |
| 20260509094542 | 57 | 348 | 0.0 | 0.0 | 0.00 | 0.00 | 0.00 | 83 | 1025.6 |
| 20260509093036 | 57 | 348 | 0.0 | 0.0 | 0.00 | 0.00 | 0.00 | 82 | 1025.6 |
| 20260509091534 | 58 | 348 | 0.0 | 0.0 | 0.00 | 0.00 | 0.00 | 82 | 1025.4 |
| 20260509090037 | 58 | 348 | 0.0 | 0.0 | 0.00 | 0.00 | 0.00 | 80 | 1025.1 |
| 20260509084529 | 58 | 348 | 0.0 | 0.0 | 0.00 | 0.00 | 0.00 | 77 | 1025.0 |
| 20260509083035 | 59 | 348 | 0.0 | 0.0 | 0.00 | 0.00 | 0.00 | 76 | 1024.8 |
| 20260509081529 | 60 | 348 | 0.0 | 0.0 | 0.00 | 0.00 | 0.00 | 74 | 1024.7 |
| 20260509080025 | 61 | 348 | 0.0 | 0.0 | 0.00 | 0.00 | 0.00 | 71 | 1024.6 |
| 20260509074523 | 62 | 348 | 0.0 | 0.0 | 0.00 | 0.00 | 0.00 | 71 | 1024.4 |
| 20260509073028 | 63 | 349 | 0.0 | 0.0 | 0.00 | 0.00 | 0.00 | 69 | 1024.2 |
| 20260509071518 | 64 | 349 | 0.0 | 0.0 | 0.00 | 0.00 | 0.00 | 68 | 1024.1 |
| 20260509070018 | 64 | 349 | 0.0 | 1.0 | 0.00 | 0.00 | 0.00 | 66 | 1023.7 |
| 20260509064517 | 65 | 91 | 0.0 | 1.0 | 0.00 | 0.00 | 0.00 | 65 | 1023.7 |
| 20260509063021 | 66 | 178 | 0.0 | 1.0 | 0.00 | 0.00 | 0.00 | 64 | 1023.8 |
| 20260509061520 | 66 | 102 | 0.0 | 2.0 | 0.00 | 0.00 | 0.00 | 62 | 1023.9 |
| 20260509060015 | 67 | 34 | 0.0 | 3.0 | 0.00 | 0.00 | 0.00 | 61 | 1023.4 |
| 20260509054514 | 68 | 289 | 0.0 | 3.0 | 0.00 | 0.00 | 0.00 | 60 | 1023.5 |
| 20260509053010 | 69 | 106 | 0.0 | 3.0 | 0.00 | 0.00 | 0.00 | 58 | 1023.2 |
| 20260509051509 | 70 | 331 | 0.0 | 3.0 | 0.00 | 0.00 | 0.00 | 57 | 1023.3 |
| 20260509050014 | 70 | 211 | 0.0 | 2.0 | 0.00 | 0.00 | 0.00 | 56 | 1023.1 |
| 20260509044509 | 70 | 156 | 0.0 | 3.0 | 0.00 | 0.00 | 0.00 | 56 | 1023.1 |
| 20260509043008 | 71 | 241 | 0.0 | 3.0 | 0.00 | 0.00 | 0.00 | 55 | 1023.2 |
| 20260509041507 | 71 | 259 | 0.0 | 3.0 | 0.00 | 0.00 | 0.00 | 55 | 1023.1 |
| 20260509040009 | 71 | 141 | 0.0 | 3.0 | 0.00 | 0.00 | 0.00 | 56 | 1022.9 |
| 20260509034507 | 71 | 128 | 1.0 | 4.0 | 0.00 | 0.00 | 0.00 | 55 | 1023.0 |
| 20260509033005 | 71 | 186 | 1.0 | 4.0 | 0.00 | 0.00 | 0.00 | 56 | 1023.1 |
| 20260509031507 | 71 | 272 | 0.0 | 3.0 | 0.00 | 0.00 | 0.00 | 55 | 1023.4 |
| 20260509030006 | 71 | 221 | 1.0 | 4.0 | 0.00 | 0.00 | 0.00 | 54 | 1023.4 |
| 20260509024506 | 71 | 101 | 0.0 | 3.0 | 0.00 | 0.00 | 0.00 | 54 | 1023.8 |
| 20260509023001 | 71 | 194 | 0.0 | 3.0 | 0.00 | 0.00 | 0.00 | 54 | 1023.9 |
| 20260509021602 | 71 | 168 | 0.0 | 4.0 | 0.00 | 0.00 | 0.00 | 54 | 1024.1 |
| 20260509020106 | 71 | 31 | 1.0 | 4.0 | 0.00 | 0.00 | 0.00 | 54 | 1024.2 |
| 20260509014555 | 71 | 254 | 0.0 | 3.0 | 0.00 | 0.00 | 0.00 | 53 | 1024.2 |
| 20260509013049 | 70 | 316 | 0.0 | 2.0 | 0.00 | 0.00 | 0.00 | 54 | 1024.4 |
| 20260509011548 | 70 | 103 | 0.0 | 2.0 | 0.00 | 0.00 | 0.00 | 54 | 1024.3 |
| 20260509010043 | 69 | 284 | 0.0 | 1.0 | 0.00 | 0.00 | 0.00 | 57 | 1024.6 |
| 20260509004549 | 69 | 156 | 1.0 | 4.0 | 0.00 | 0.00 | 0.00 | 57 | 1024.7 |
| 20260509003038 | 68 | 162 | 0.0 | 2.0 | 0.00 | 0.00 | 0.00 | 59 | 1024.8 |
| 20260509001532 | 67 | 116 | 0.0 | 3.0 | 0.00 | 0.00 | 0.00 | 60 | 1024.7 |
| 20260509000026 | 66 | 128 | 0.0 | 3.0 | 0.00 | 0.00 | 0.00 | 61 | 1024.8 |
| 20260508234522 | 65 | 186 | 0.0 | 3.0 | 0.00 | 0.00 | 0.00 | 62 | 1024.9 |
| 20260508233017 | 64 | 304 | 0.0 | 3.0 | 0.00 | 0.00 | 0.00 | 65 | 1024.9 |
| 20260508231512 | 63 | 166 | 0.0 | 5.0 | 0.00 | 0.00 | 0.00 | 67 | 1024.8 |
| 20260508230008 | 61 | 71 | 0.0 | 3.0 | 0.00 | 0.00 | 0.00 | 69 | 1024.7 |
| 20260508224503 | 60 | 124 | 0.0 | 3.0 | 0.00 | 0.00 | 0.00 | 70 | 1024.7 |